EA4TN Weather Reports


Display with metric or nautical units.
time (UTC)temp
F
wind
direction
speed
MPH
gust
MPH
rain 1hr
in
rain 24hr
in
rain mn
in
humidity
%
barometer
mb
20260510211056 53 249 1.0 5.0 0.00 0.24 0.20 88 1014.0
20260510210036 53 228 2.0 6.0 0.00 0.26 0.20 88 1013.9
20260510205016 53 230 2.0 4.0 0.00 0.26 0.20 87 1013.6
20260510204016 53 255 2.0 3.0 0.00 0.26 0.20 87 1013.5
20260510203016 54 242 1.0 3.0 0.00 0.26 0.20 86 1013.5
20260510202015 54 242 1.0 3.0 0.00 0.26 0.20 86 1013.5
20260510201016 54 243 2.0 5.0 0.00 0.26 0.20 85 1013.3
20260510200016 54 249 2.0 5.0 0.00 0.26 0.20 85 1013.2
20260510195016 54 263 2.0 4.0 0.00 0.26 0.20 84 1013.0
20260510194016 55 249 3.0 7.0 0.00 0.26 0.20 82 1012.9
20260510193015 55 259 2.0 6.0 0.00 0.26 0.20 80 1012.9
20260510192016 56 259 2.0 6.0 0.00 0.26 0.20 79 1012.7
20260510191016 56 244 3.0 7.0 0.00 0.26 0.20 76 1012.5
20260510190016 57 251 3.0 7.0 0.00 0.26 0.20 74 1012.4
20260510185016 58 258 3.0 7.0 0.00 0.26 0.20 73 1012.4
20260510184016 58 251 3.0 8.0 0.00 0.26 0.20 73 1012.2
20260510183016 58 256 3.0 7.0 0.00 0.26 0.20 72 1012.1
20260510182016 58 232 4.0 9.0 0.00 0.26 0.20 72 1012.1
20260510181056 58 244 4.0 9.0 0.00 0.26 0.20 73 1012.1
20260510180016 58 247 4.0 10.0 0.00 0.26 0.20 72 1012.4
20260510175016 58 255 4.0 11.0 0.00 0.26 0.20 72 1012.4
20260510174016 59 242 5.0 11.0 0.00 0.26 0.20 71 1012.1
20260510173036 59 256 4.0 11.0 0.00 0.26 0.20 71 1012.1
20260510172015 59 255 3.0 9.0 0.00 0.26 0.20 72 1012.2
20260510171015 59 260 3.0 10.0 0.00 0.26 0.20 71 1012.2
20260510170016 60 259 4.0 9.0 0.00 0.26 0.20 70 1012.3
20260510165016 59 266 4.0 11.0 0.00 0.26 0.20 71 1012.2
20260510164016 59 256 4.0 10.0 0.00 0.26 0.20 72 1012.0
20260510163016 58 268 4.0 9.0 0.00 0.26 0.20 75 1011.9
20260510162016 58 261 4.0 8.0 0.00 0.31 0.20 76 1012.3
20260510161016 59 266 3.0 8.0 0.00 0.31 0.20 76 1012.1
20260510160016 58 238 4.0 9.0 0.00 0.31 0.20 78 1012.2
20260510155016 57 252 3.0 8.0 0.00 0.31 0.20 80 1012.1
20260510154016 56 252 4.0 7.0 0.00 0.31 0.20 83 1012.1
20260510153016 56 259 2.0 6.0 0.01 0.31 0.20 85 1012.1
20260510152016 55 248 3.0 6.0 0.02 0.31 0.20 88 1012.1
20260510151016 54 264 3.0 6.0 0.08 0.31 0.20 88 1012.0
20260510150016 54 266 3.0 8.0 0.09 0.32 0.20 89 1012.3
20260510145016 54 274 6.0 11.0 0.10 0.33 0.20 87 1012.7
20260510144016 53 270 3.0 6.0 0.10 0.33 0.20 90 1012.6
20260510143016 54 270 4.0 9.0 0.09 0.32 0.19 89 1012.6
20260510142016 55 260 4.0 7.0 0.08 0.31 0.17 87 1012.5
20260510141016 55 230 2.0 7.0 0.02 0.25 0.12 84 1012.4
20260510140036 56 232 3.0 9.0 0.02 0.24 0.11 81 1012.3
20260510135016 57 249 3.0 9.0 0.00 0.23 0.09 76 1012.6
20260510134016 58 251 4.0 11.0 0.00 0.23 0.09 72 1012.4
20260510133016 58 255 5.0 9.0 0.00 0.23 0.09 74 1012.3
20260510132016 57 249 3.0 8.0 0.00 0.23 0.09 76 1012.4
20260510131036 56 258 4.0 8.0 0.00 0.23 0.09 78 1012.3
20260510130016 56 268 4.0 10.0 0.00 0.24 0.09 79 1012.3
20260510125016 55 258 3.0 8.0 0.00 0.26 0.09 81 1012.5
20260510124016 54 258 4.0 9.0 0.00 0.33 0.09 81 1012.5
20260510123016 54 264 5.0 14.0 0.00 0.35 0.09 81 1012.8
20260510122016 54 262 5.0 12.0 0.01 0.39 0.09 82 1012.9
20260510121016 54 263 5.0 11.0 0.02 0.39 0.09 83 1012.6
20260510120016 54 265 5.0 11.0 0.02 0.39 0.09 85 1012.8
20260510115036 53 257 3.0 12.0 0.02 0.39 0.09 86 1012.4
20260510114016 53 268 6.0 13.0 0.06 0.39 0.09 88 1012.7
20260510113016 53 268 7.0 17.0 0.06 0.39 0.09 88 1012.7
20260510112016 52 266 5.0 12.0 0.06 0.39 0.09 90 1012.7
20260510111016 52 260 3.0 9.0 0.06 0.38 0.08 89 1012.8
20260510110016 52 262 7.0 12.0 0.05 0.37 0.07 86 1012.5
20260510105036 54 271 7.0 16.0 0.05 0.37 0.07 80 1012.4
20260510104016 57 253 7.0 17.0 0.01 0.33 0.03 81 1011.8
20260510103016 59 241 5.0 15.0 0.01 0.33 0.03 78 1011.8
20260510102016 59 231 6.0 13.0 0.00 0.32 0.02 77 1011.9
20260510101016 58 245 5.0 14.0 0.00 0.32 0.02 78 1011.9
20260510100036 58 235 5.0 12.0 0.00 0.32 0.02 80 1012.0
20260510095056 57 238 6.0 13.0 0.00 0.32 0.02 81 1012.0
20260510094036 57 236 6.0 13.0 0.00 0.32 0.02 81 1012.2
20260510093016 57 248 4.0 12.0 0.00 0.32 0.02 83 1012.2
20260510092016 57 237 4.0 10.0 0.00 0.32 0.02 83 1012.5
20260510091016 56 243 3.0 7.0 0.00 0.32 0.02 86 1012.6
20260510090016 56 243 3.0 8.0 0.00 0.32 0.02 88 1012.8
20260510085016 55 237 4.0 9.0 0.00 0.32 0.02 88 1012.8
20260510084016 55 244 3.0 9.0 0.00 0.32 0.02 89 1012.8
20260510083016 54 242 2.0 5.0 0.00 0.32 0.02 90 1012.8
20260510082016 54 263 2.0 5.0 0.00 0.32 0.02 89 1013.0
20260510081036 54 257 3.0 6.0 0.00 0.32 0.02 89 1013.0
20260510080016 54 235 3.0 8.0 0.00 0.32 0.02 89 1013.0
20260510075016 54 242 3.0 9.0 0.00 0.32 0.02 90 1013.0
20260510074016 54 235 3.0 8.0 0.00 0.32 0.02 91 1013.1
20260510073016 53 242 3.0 8.0 0.00 0.32 0.02 91 1013.0
20260510072036 53 244 3.0 7.0 0.00 0.32 0.02 92 1013.0
20260510071016 52 244 2.0 5.0 0.00 0.32 0.02 92 1012.8
20260510070016 52 232 2.0 6.0 0.01 0.32 0.02 92 1012.8
20260510065056 52 225 2.0 4.0 0.01 0.32 0.02 93 1012.9
20260510064016 52 236 2.0 4.0 0.01 0.32 0.02 93 1012.9
20260510063016 51 242 2.0 3.0 0.01 0.32 0.02 93 1012.8
20260510062016 51 244 2.0 3.0 0.02 0.32 0.02 93 1012.6
20260510061016 51 255 1.0 3.0 0.02 0.32 0.02 93 1012.3
20260510060036 51 252 2.0 7.0 0.01 0.31 0.02 93 1012.4
20260510055017 51 230 2.0 5.0 0.01 0.31 0.02 93 1012.3
20260510054016 51 262 1.0 5.0 0.01 0.31 0.02 93 1012.3
20260510053016 51 240 3.0 7.0 0.01 0.31 0.02 93 1012.3
20260510052017 50 247 2.0 4.0 0.00 0.31 0.01 93 1012.2
20260510051016 50 244 2.0 5.0 0.00 0.31 0.01 93 1012.2
20260510050036 50 249 1.0 4.0 0.00 0.31 0.01 93 1012.1
20260510045016 50 204 0.0 2.0 0.00 0.31 0.01 93 1012.2
20260510044016 50 108 1.0 3.0 0.00 0.31 0.01 93 1012.2
20260510043016 49 256 0.0 2.0 0.00 0.31 0.01 93 1012.2
20260510042016 49 256 1.0 4.0 0.00 0.31 0.01 93 1012.4
20260510041017 49 108 0.0 2.0 0.00 0.31 0.01 93 1012.4
20260510040016 49 108 0.0 1.0 0.00 0.31 0.01 93 1012.4
20260510035036 50 108 0.0 2.0 0.00 0.31 0.01 93 1012.4
20260510034056 50 0.0 1.0 0.00 0.31 0.01 93 1012.3
20260510033016 50 118 2.0 4.0 0.00 0.31 0.01 93 1012.4
20260510032016 51 249 1.0 3.0 0.00 0.31 0.01 94 1012.7
20260510031016 51 237 2.0 3.0 0.00 0.31 0.01 94 1012.8
20260510030036 51 242 1.0 3.0 0.00 0.31 0.01 94 1012.9
20260510025016 51 223 1.0 3.0 0.00 0.31 0.01 94 1012.8
20260510024016 51 251 1.0 2.0 0.00 0.31 0.01 94 1012.8
20260510023036 51 235 2.0 4.0 0.00 0.31 0.01 94 1012.8
20260510022016 51 233 2.0 5.0 0.00 0.31 0.01 94 1012.5
20260510021036 51 241 2.0 4.0 0.00 0.31 0.01 93 1012.4
20260510020016 51 252 1.0 4.0 0.00 0.31 0.01 93 1012.4
20260510015016 51 241 1.0 3.0 0.00 0.31 0.01 93 1012.3
20260510014017 51 250 1.0 3.0 0.00 0.31 0.01 93 1012.4
20260510013016 51 236 1.0 3.0 0.00 0.31 0.01 93 1012.3
20260510012016 51 232 1.0 3.0 0.00 0.31 0.01 93 1012.5
20260510011016 51 264 2.0 3.0 0.01 0.31 0.01 92 1012.6
20260510010016 51 244 1.0 3.0 0.01 0.31 0.01 92 1012.6
20260510005036 51 238 1.0 5.0 0.01 0.31 0.01 93 1012.9
20260510004016 51 242 2.0 5.0 0.01 0.31 0.01 92 1013.0
20260510003016 51 238 1.0 5.0 0.02 0.31 0.01 92 1013.0
20260510002016 52 262 2.0 4.0 0.02 0.31 0.01 92 1013.3
20260510001016 52 233 2.0 4.0 0.02 0.30 0.00 92 1013.3
20260510000016 52 232 1.0 4.0 0.02 0.30 0.30 92 1013.1
20260509235016 52 258 1.0 5.0 0.02 0.30 0.30 91 1013.3
20260509234016 52 261 2.0 8.0 0.02 0.30 0.30 91 1013.2
20260509233036 52 262 3.0 8.0 0.01 0.29 0.29 91 1013.3
20260509232016 52 275 2.0 4.0 0.00 0.28 0.28 92 1013.3
20260509231036 52 247 2.0 5.0 0.00 0.28 0.28 92 1013.4
20260509230016 52 265 2.0 4.0 0.00 0.28 0.28 92 1013.4
20260509225056 52 97 2.0 3.0 0.00 0.28 0.28 92 1013.1
20260509224016 52 0.0 1.0 0.00 0.28 0.28 92 1012.9
20260509223036 52 0.0 3.0 0.00 0.28 0.28 92 1012.9
20260509222016 52 115 1.0 3.0 0.00 0.28 0.28 91 1012.8
20260509221016 52 247 1.0 3.0 0.02 0.28 0.28 91 1012.7
20260509220016 52 261 1.0 2.0 0.05 0.28 0.28 91 1012.7
20260509215016 52 270 1.0 3.0 0.05 0.28 0.28 91 1012.4
20260509214016 52 252 1.0 4.0 0.05 0.28 0.28 91 1012.2
20260509213016 52 281 3.0 11.0 0.05 0.28 0.28 90 1012.2
20260509212016 52 276 5.0 13.0 0.05 0.28 0.28 89 1012.3